Regional Weather Roundup
Issued by NWS

Home | Current Version | Previous Version | Text Only | Print | Product List | Glossary On
Versions: 1 2 3 4 5 6 7 8 9 10 11 12 13 14 15 16 17 18 19 20 21 22 23 24 25 26 27 28 29 30 31 32 33 34 35 36 37 38 39 40 41 42 43 44 45 46 47 48 49 50
000
ASUS46 KPQR 240610
RWROR

OREGON REGIONAL WEATHER ROUNDUP
NATIONAL WEATHER SERVICE PORTLAND OR
1000 PM PST SUN NOV 23 2014

NOTE: "FAIR" INDICATES FEW OR NO CLOUDS BELOW 12,000 FEET WITH
NO SIGNIFICANT WEATHER AND/OR OBSTRUCTIONS TO VISIBILITY.

ORZ001>013-240700-
NORTHWEST OREGON


CITY           SKY/WX    TMP DP  RH WIND       PRES   REMARKS
ASTORIA        FOG       40  39  97 NE3       30.33R VSB 1/2
6HR MIN TEMP:  39; 6HR MAX TEMP:  50;

NEWPORT        CLOUDY    54  54 100 SW10      30.35S FOG
PORTLAND       CLOUDY    49  48  97 S3        30.36R
6HR MIN TEMP:  48; 6HR MAX TEMP:  51; 6HR PCP:  0.01;

VANCOUVER WA   CLOUDY    48  46  93 CALM      30.35R FOG
6HR MIN TEMP:  47; 6HR MAX TEMP:  51; 6HR PCP:  0.01;

SCAPPOOSE      CLOUDY    47  46  97 CALM      30.35R FOG
6HR MIN TEMP:  45; 6HR MAX TEMP:  51; 6HR PCP: TRACE;

HILLSBORO      CLOUDY    51  47  86 CALM      30.35R FOG
6HR MIN TEMP:  49; 6HR MAX TEMP:  60; 6HR PCP: TRACE;

AURORA         MOCLDY    47  46  97 CALM      30.35S
6HR MIN TEMP:  47; 6HR MAX TEMP:  50; 6HR PCP:  0.03;

MCMINNVILLE    NOT AVBL
SALEM          MOCLDY    49  47  93 S9        30.34S
6HR MIN TEMP:  49; 6HR MAX TEMP:  53; 6HR PCP:  0.46;

CORVALLIS      CLOUDY    48  45  87 SE5       30.36S
EUGENE         MOCLDY    47  43  86 S5        30.37R
6HR MIN TEMP:  47; 6HR MAX TEMP:  54; 6HR PCP:  0.01;

$$

ORZ021-028-240700-
SOUTHWEST OREGON


CITY           SKY/WX    TMP DP  RH WIND       PRES   REMARKS
NORTH BEND     MOCLDY    48 N/A N/A SE5       30.37S
6HR MIN TEMP:  48; 6HR MAX TEMP:  57;

BROOKINGS      PTCLDY    44  44 100 CALM      30.36R
ROSEBURG       PTCLDY    41  38  89 CALM      30.39S
6HR MIN TEMP:  41; 6HR MAX TEMP:  55;

SEXTON SUMMIT  PTCLDY    36  31  82 SE9       30.33F WCI  29
6HR MIN TEMP:  36; 6HR MAX TEMP:  41;

MEDFORD        CLOUDY    44  41  89 CALM      30.41S
6HR MIN TEMP:  41; 6HR MAX TEMP:  46;

$$

ORZ009-041-240700-
COLUMBIA GORGE


CITY           SKY/WX    TMP DP  RH WIND       PRES   REMARKS
TROUTDALE      CLOUDY    47  45  93 CALM      30.35R FOG
6HR MIN TEMP:  45; 6HR MAX TEMP:  51; 6HR PCP:  0.02;

THE DALLES     PTCLDY    48  41  76 E6        30.27R
6HR MIN TEMP:  43; 6HR MAX TEMP:  51;

$$

ORZ029>031-042>050-061>064-240700-
EASTERN OREGON


CITY           SKY/WX    TMP DP  RH WIND       PRES   REMARKS
REDMOND        MOCLDY    33  29  85 CALM      30.29S
6HR MIN TEMP:  31; 6HR MAX TEMP:  45;

BEND           CLEAR     37  30  75 SW7       30.30R WCI  32
PRINEVILLE     PTCLDY    39  32  75 SW9       30.30R WCI  33
KLAMATH FALLS  PTCLDY    26  23  88 E3        30.36S
6HR MIN TEMP:  26; 6HR MAX TEMP:  41;

LAKEVIEW       CLEAR     25  21  86 S3        30.36R
HERMISTON      MOCLDY    46  38  73 SW13      30.25R
6HR MIN TEMP:  45; 6HR MAX TEMP:  53;

PENDLETON      MOCLDY    43  36  76 W20       30.24R
6HR MIN TEMP:  43; 6HR MAX TEMP:  48; 6HR PCP:  0.02;

JOHN DAY       CLOUDY    41  32  69 CALM      30.26R
MEACHAM        CLOUDY    36  32  85 VRB3      30.23R
6HR MIN TEMP:  36; 6HR MAX TEMP:  39; 6HR PCP:  0.09;

LA GRANDE      MOCLDY    36  28  75 S3        30.23R
6HR MIN TEMP:  36; 6HR MAX TEMP:  46; 6HR PCP:  0.01;

BAKER CITY     PTCLDY    32  29  88 VRB3      30.23R
6HR MIN TEMP:  30; 6HR MAX TEMP:  40; 6HR PCP: TRACE;

BURNS          CLOUDY    30  26  85 SW7       30.29R WCI  23
6HR MIN TEMP:  28; 6HR MAX TEMP:  40;

ROME             N/A     35  20  54 S10       30.25S WCI  27
6HR MIN TEMP:  34; 6HR MAX TEMP:  41;

ONTARIO        PTCLDY    32  27  81 SW9       30.26F WCI  24
6HR MIN TEMP:  30; 6HR MAX TEMP:  38;

$$



USA.gov is the U.S. government's official web portal to all federal, state and local government web resources and services.